Regional Weather Roundup
Issued by NWS

Home | Current Version | Previous Version | Text Only | Print | Product List | Glossary On
Versions: 1 2 3 4 5 6 7 8 9 10 11 12 13 14 15 16 17 18 19 20 21 22 23 24 25 26 27 28 29 30 31 32 33 34 35 36 37 38 39 40 41 42 43 44 45 46 47 48 49 50
000
ASUS43 KOAX 300810
RWRNE

WEATHER ROUNDUP FOR NEBRASKA
NATIONAL WEATHER SERVICE OMAHA NE
300 AM CDT SAT AUG 30 2014

NOTES: SATELLITE DATA IS BEING USED TO AUGMENT CLOUD COVER ABOVE
       12000 FEET.
       "FAIR" INDICATES FEW OR NO CLOUDS BELOW 12,000 FEET WITH NO
       SIGNIFICANT WEATHER AND/OR OBSTRUCTIONS TO VISIBILITY.

  * THESE STATIONS DO NOT REPORT WEATHER SUCH AS RAIN...SNOW OR FOG.

NEZ001>004-019>022-054>056-300900-
NEBRASKA PANHANDLE

CITY           SKY/WX    TMP DP  RH WIND       PRES   REMARKS
SCOTTSBLUFF    CLEAR     56  54  93 E6        30.06F
ALLIANCE       PTCLDY    54  51  90 SE3       30.05F
CHADRON        CLEAR     54  52  93 CALM      30.01F
KIMBALL        CLEAR     55  50  85 S5        30.11S
SIDNEY         CLEAR     56  52  86 S5        30.10F
$$

NEZ057>060-069>072-079>082-300900-
SOUTHWEST NEBRASKA

CITY           SKY/WX    TMP DP  RH WIND       PRES   REMARKS
NORTH PLATTE   CLEAR     56  54  93 CALM      30.00F
IMPERIAL       PTCLDY    61  57  87 CALM      30.04F
LEXINGTON      CLEAR     59  58  96 NW3       29.99S
MCCOOK         PTCLDY    63  59  87 NW3       30.01S
OGALLALA       CLEAR     53  52  95 W7        30.05S
$$

NEZ005>010-023>029-035>040-094-300900-
NORTH CENTRAL NEBRASKA

CITY           SKY/WX    TMP DP  RH WIND       PRES   REMARKS
VALENTINE      CLEAR     55  54  96 SW3       30.01R
AINSWORTH      CLEAR     57  55  94 W6        30.00R
BROKEN BOW     CLEAR     59  56  89 W5        29.99R
O`NEILL        CLEAR     60  59  96 NW8       29.96R
ORD            CLEAR     60  58  92 NW3       29.95R
THEDFORD       CLEAR     55  53  95 CALM      30.02S
$$

NEZ041-046>049-061>064-073>077-083>087-300900-
SOUTH CENTRAL NEBRASKA

CITY           SKY/WX    TMP DP  RH WIND       PRES   REMARKS
GRAND ISLAND   CLEAR     62  59  90 W7        29.95R
AURORA         CLEAR     61  61 100 NW3       29.93S
HASTINGS       CLEAR     62  57  83 NW7       29.95R
HEBRON         CLEAR     64  61  88 CALM      29.92R
HOLDREGE       CLEAR     60  57  89 CALM      29.98S
KEARNEY *      CLEAR     63  57  82 W7        29.97S
YORK           PTCLDY    63 N/A N/A NW6       29.93R
$$

NEZ011>018-030>034-042>045-300900-
NORTHEAST NEBRASKA

CITY           SKY/WX    TMP DP  RH WIND       PRES   REMARKS
NORFOLK        CLEAR     63  59  87 W6        29.91R
ALBION         CLEAR     63  60  91 NW6       29.93R
BLAIR          CLEAR     65  63  93 W3        29.87R
FREMONT        CLEAR     65  64  95 W3        29.88R
TEKAMAH        CLEAR     63  62  97 W5        29.86R
WAYNE          PTCLDY    64  62  94 NW7       29.89R
$$

NEZ050>053-065>068-078-088>093-300900-
SOUTHEAST NEBRASKA

CITY           SKY/WX    TMP DP  RH WIND       PRES   REMARKS
LINCOLN        PTCLDY    67  64  90 W5        29.90R
OMAHA EPPLEY   CLEAR     67  64  90 W5        29.86R
BEATRICE       CLEAR     63  63 100 NW5       29.90R
FALLS CITY     CLEAR     66  65  96 N5        29.87R
NEBRASKA CITY  CLEAR     66  66 100 W3        29.87S
PLATTSMOUTH    CLEAR     66  64  93 CALM      29.87R FOG
$$

NEZ044-045-051>053-067-300900-
OMAHA AREA

CITY           SKY/WX    TMP DP  RH WIND       PRES   REMARKS
OMAHA EPPLEY   CLEAR     67  64  90 W5        29.86R
BLAIR          CLEAR     65  63  93 W3        29.87R
FREMONT        CLEAR     65  64  95 W3        29.88R
MILLARD        CLEAR     67  65  94 CALM      29.86S
OFFUTT AFB     CLEAR     65  65 100 W3        29.86R
PLATTSMOUTH    CLEAR     66  64  93 CALM      29.87R FOG
WAHOO          FAIR      66  63  89 CALM      29.88R
$$



USA.gov is the U.S. government's official web portal to all federal, state and local government web resources and services.